Weather History for KTDZ - December, 2013

Change the Weather History Date:

Monday, December 9, 2013

  Actual Average (KTOL) Record (KTOL)
Temperature  
Mean Temperature 26 °F 32 °F  
Max Temperature 30 °F 38 °F 60 °F (1952)
Min Temperature 21 °F 25 °F -5 °F (1917)
Degree Days  
Heating Degree Days 40 33  
Month to date heating degree days 287  
Since 1 July heating degree days 1520  
Cooling Degree Days 0 0  
Month to date cooling degree days 0  
Year to date cooling degree days 793  
Moisture  
Dew Point 22 °F    
Average Humidity 80    
Maximum Humidity 93    
Minimum Humidity 63    
Precipitation  
Precipitation 0.00 in 0.09 in 1.14 in (2008)
Month to date precipitation 0.82  
Year to date precipitation 32.38  
Snow  
Snow 0.00 in 0.20 in - ()
Month to date snowfall 1.6  
Since 1 July snowfall 3.7  
Snow Depth -    
Sea Level Pressure  
Sea Level Pressure 30.03 in    
Wind  
Wind Speed 11 mph (SW)    
Max Wind Speed 22 mph    
Max Gust Speed 31 mph    
Visibility 7 miles    
Events Snow    
T = Trace of Precipitation, MM = Missing Value Source: NWS Daily Summary

Daily Weather History Graph

Daily Weather History Graph

Search for Another Location

Airport or City:

Trip Planner

Search our weather history database for the weather conditions in past years. The results will help you decide how hot, cold, wet, or windy it might be!

Date:

Astronomy

Dec. 09, 2013 Rise Set
Actual Time 7:48 AM EST 5:03 PM EST
Civil Twilight 7:17 AM EST 5:35 PM EST
Nautical Twilight 6:42 AM EST 6:09 PM EST
Astronomical Twilight 6:09 AM EST 6:43 PM EST
Moon 12:37 PM EST (12/9) No Moon Set
Length of Visible Light 10h 17m
Length of Day
9h 14m
Waxing Crescent, 51% of the Moon is Illuminated
Dec 9
Waxing Crescent
Dec 17
Full
Dec 25
Last Quarter
Jan 1
New
Jan 7
First Quarter

Hourly Weather History & Observations

Time (EST) Temp. Windchill Dew Point Humidity Pressure Visibility Wind Dir Wind Speed Gust Speed Precip Events Conditions
12:50 AM 28.4 °F 21.2 °F 26.6 °F 93% 29.95 in 2.5 mi SSE 6.9 mph - N/A   Overcast
12:53 AM 28.9 °F 22.8 °F 27.0 °F 92% 29.97 in 2.0 mi SSE 5.8 mph - N/A   Overcast
1:05 AM 28.4 °F 22.2 °F 26.6 °F 93% 29.95 in 1.8 mi South 5.8 mph - N/A   Overcast
1:13 AM 28.4 °F 23.3 °F 26.6 °F 93% 29.95 in 1.8 mi South 4.6 mph - N/A   Overcast
1:53 AM 30.0 °F 24.1 °F 28.0 °F 92% 29.95 in 1.5 mi SSW 5.8 mph - N/A   Overcast
2:20 AM 30.2 °F 23.4 °F 28.4 °F 93% 29.92 in 2.0 mi SSW 6.9 mph - N/A   Overcast
2:37 AM 30.2 °F 21.9 °F 28.4 °F 93% 29.92 in 3.0 mi SSW 9.2 mph - N/A   Overcast
2:45 AM 30.2 °F 20.8 °F 28.4 °F 93% 29.92 in 4.0 mi SW 11.5 mph - N/A   Overcast
2:53 AM 30.9 °F 22.8 °F 28.9 °F 92% 29.94 in 4.0 mi SW 9.2 mph - N/A   Overcast
3:10 AM 30.2 °F 20.2 °F 28.4 °F 93% 29.92 in 2.0 mi SW 12.7 mph - 0.00 in Snow Light Snow
3:25 AM 30.2 °F 21.9 °F 28.4 °F 93% 29.92 in 4.0 mi SW 9.2 mph - 0.00 in   Overcast
3:53 AM 30.9 °F 22.2 °F 28.9 °F 92% 29.94 in 6.0 mi SW 10.4 mph - 0.00 in   Overcast
4:39 AM 30.2 °F 20.8 °F 28.4 °F 93% 29.92 in 8.0 mi WSW 11.5 mph 21.9 mph N/A   Overcast
4:53 AM 30.9 °F 21.2 °F 27.0 °F 85% 29.94 in 9.0 mi SW 12.7 mph - N/A   Overcast
5:17 AM 30.2 °F 18.9 °F 26.6 °F 86% 29.93 in 10.0 mi WSW 16.1 mph - N/A   Overcast
5:53 AM 30.9 °F 21.7 °F 27.0 °F 85% 29.94 in 7.0 mi SW 11.5 mph - 0.00 in   Overcast
6:53 AM 30.9 °F 19.8 °F 26.1 °F 82% 29.97 in 10.0 mi WSW 16.1 mph - 0.00 in   Overcast
7:53 AM 30.0 °F 18.7 °F 26.1 °F 85% 29.99 in 8.0 mi WSW 16.1 mph 21.9 mph N/A   Overcast
8:53 AM 28.9 °F 16.1 °F 24.1 °F 82% 30.01 in 10.0 mi WSW 19.6 mph 28.8 mph N/A   Overcast
9:08 AM 28.4 °F 15.4 °F 23.0 °F 80% 30.00 in 10.0 mi WSW 19.6 mph 26.5 mph N/A   Overcast
9:31 AM 28.4 °F 16.6 °F 24.8 °F 86% 30.01 in 7.0 mi WSW 16.1 mph - N/A   Overcast
9:53 AM 28.9 °F 16.9 °F 23.0 °F 78% 30.05 in 8.0 mi WSW 17.3 mph 26.5 mph N/A   Overcast
10:09 AM 28.4 °F 17.0 °F 21.2 °F 74% 30.03 in 8.0 mi WSW 15.0 mph 29.9 mph N/A   Overcast
10:53 AM 28.0 °F 17.0 °F 21.9 °F 78% 30.08 in 6.0 mi WSW 13.8 mph 26.5 mph N/A   Haze
11:53 AM 28.0 °F 16.1 °F 21.0 °F 75% 30.07 in 8.0 mi WSW 16.1 mph 27.6 mph N/A   Overcast
12:53 PM 28.0 °F 17.5 °F 21.0 °F 75% 30.06 in 8.0 mi WSW 12.7 mph - N/A   Overcast
1:53 PM 28.0 °F 14.3 °F 19.0 °F 69% 30.08 in 10.0 mi WSW 21.9 mph 29.9 mph N/A   Overcast
2:53 PM 28.0 °F 14.3 °F 19.0 °F 69% 30.09 in 9.0 mi WSW 21.9 mph 31.1 mph N/A   Overcast
3:53 PM 27.0 °F 12.8 °F 17.1 °F 66% 30.11 in 9.0 mi WSW 21.9 mph 29.9 mph N/A   Mostly Cloudy
4:14 PM 26.6 °F 13.4 °F 15.8 °F 64% 30.09 in 9.0 mi WSW 18.4 mph - N/A   Scattered Clouds
4:45 PM 26.6 °F 13.8 °F 15.8 °F 64% 30.10 in 9.0 mi WSW 17.3 mph 27.6 mph N/A   Mostly Cloudy
4:53 PM 26.1 °F 14.0 °F 16.0 °F 66% 30.13 in 8.0 mi WSW 15.0 mph 26.5 mph N/A   Mostly Cloudy
5:53 PM 24.1 °F 12.0 °F 15.1 °F 69% 30.14 in 10.0 mi WSW 13.8 mph 27.6 mph N/A   Scattered Clouds
6:53 PM 23.0 °F 9.2 °F 14.0 °F 68% 30.16 in 10.0 mi WSW 17.3 mph - N/A   Clear
7:53 PM 23.0 °F 9.6 °F 14.0 °F 68% 30.18 in 9.0 mi WSW 16.1 mph 23.0 mph N/A   Partly Cloudy
8:53 PM 23.0 °F 11.1 °F 14.0 °F 68% 30.17 in 9.0 mi SW 12.7 mph - N/A   Partly Cloudy
9:53 PM 21.9 °F 9.8 °F 12.9 °F 68% 30.17 in 9.0 mi SW 12.7 mph 19.6 mph N/A   Mostly Cloudy
10:53 PM 21.0 °F 8.1 °F 10.9 °F 65% 30.16 in 10.0 mi WSW 13.8 mph - N/A   Overcast
11:53 PM 21.0 °F 8.6 °F 10.0 °F 63% 30.16 in 10.0 mi WSW 12.7 mph - N/A   Overcast